CPA450 VHHH-RCTP

Flight info

Callsign CPA450
Flight time 1h 10m
Altitude 31000
Route DALOL V631 ENVAR M750 TONGA
Aircraft A346/H-SDE2E3FGHIJ3J4J5M1RWXY/LB1D1

Departure

Time 2026-05-07 05:12
Airport Hong Kong International Airport (VHHH)

Arrival

Time 2026-05-07 06:22
Airport Taiwan Taoyuan International Airport (RCTP)
Time Latitude Longitude Altitude Speed Heading
2026-05-07 04:58 22.31342 113.93129 44 ft 0 kts 340°
2026-05-07 05:02 22.31341 113.93129 44 ft 2 kts 340°
2026-05-07 05:02 22.31330 113.93134 44 ft 4 kts 340°
2026-05-07 05:02 22.31304 113.93143 42 ft 4 kts 340°
2026-05-07 05:02 22.31283 113.93153 41 ft 4 kts 324°
2026-05-07 05:03 22.31271 113.93167 39 ft 4 kts 286°
2026-05-07 05:03 22.31272 113.93188 39 ft 4 kts 252°
2026-05-07 05:03 22.31281 113.93215 39 ft 4 kts 250°
2026-05-07 05:03 22.31283 113.93220 39 ft 0 kts 251°
2026-05-07 05:04 22.31278 113.93206 40 ft 6 kts 251°
2026-05-07 05:05 22.31255 113.93134 39 ft 15 kts 251°
2026-05-07 05:05 22.31217 113.93014 44 ft 19 kts 251°
2026-05-07 05:05 22.31154 113.92884 44 ft 21 kts 218°
2026-05-07 05:05 22.31019 113.92808 44 ft 23 kts 206°
2026-05-07 05:06 22.30868 113.92723 44 ft 24 kts 223°
2026-05-07 05:06 22.30791 113.92553 41 ft 26 kts 251°
2026-05-07 05:06 22.30729 113.92359 44 ft 28 kts 251°
2026-05-07 05:06 22.30662 113.92152 44 ft 30 kts 251°
2026-05-07 05:07 22.30591 113.91937 44 ft 31 kts 250°
2026-05-07 05:07 22.30518 113.91711 44 ft 32 kts 251°
2026-05-07 05:07 22.30443 113.91478 44 ft 33 kts 251°
2026-05-07 05:07 22.30440 113.91313 44 ft 19 kts 319°
2026-05-07 05:08 22.30572 113.91252 44 ft 22 kts 341°
2026-05-07 05:08 22.30725 113.91195 44 ft 25 kts 341°
2026-05-07 05:08 22.30894 113.91132 44 ft 27 kts 341°
2026-05-07 05:08 22.31076 113.91064 44 ft 29 kts 341°
2026-05-07 05:09 22.31252 113.90990 42 ft 19 kts 319°
2026-05-07 05:09 22.31250 113.90847 44 ft 21 kts 251°
2026-05-07 05:09 22.31198 113.90685 44 ft 24 kts 251°
2026-05-07 05:09 22.31140 113.90506 44 ft 26 kts 250°
2026-05-07 05:10 22.31077 113.90312 44 ft 28 kts 250°
2026-05-07 05:10 22.31014 113.90115 44 ft 28 kts 251°
2026-05-07 05:10 22.30968 113.89943 44 ft 19 kts 283°
2026-05-07 05:10 22.31075 113.89863 44 ft 14 kts
2026-05-07 05:11 22.31139 113.89937 44 ft 6 kts 71°
2026-05-07 05:11 22.31141 113.89943 44 ft 3 kts 71°
2026-05-07 05:11 22.31214 113.90168 44 ft 70 kts 71°
2026-05-07 05:11 22.31457 113.90918 44 ft 139 kts 71°
2026-05-07 05:12 22.31833 113.92085 232 ft 180 kts 70°
2026-05-07 05:12 22.32254 113.93375 999 ft 182 kts 71°
2026-05-07 05:12 22.32676 113.94669 1802 ft 183 kts 73°
2026-05-07 05:12 22.33101 113.95997 2396 ft 193 kts 71°
2026-05-07 05:13 22.33710 113.97374 2847 ft 211 kts 61°
2026-05-07 05:13 22.34532 113.98762 3323 ft 228 kts 57°
2026-05-07 05:13 22.35457 114.00230 3822 ft 243 kts 56°
2026-05-07 05:13 22.36431 114.01758 4571 ft 250 kts 55°
2026-05-07 05:14 22.37431 114.03332 5342 ft 257 kts 55°
2026-05-07 05:14 22.38456 114.04950 6144 ft 262 kts 55°
2026-05-07 05:14 22.39486 114.06592 6945 ft 266 kts 58°
2026-05-07 05:14 22.40096 114.08483 7698 ft 272 kts 89°
2026-05-07 05:15 22.39729 114.10483 8410 ft 277 kts 114°
2026-05-07 05:15 22.38922 114.12437 8969 ft 292 kts 117°
2026-05-07 05:15 22.38038 114.14472 9606 ft 304 kts 117°
2026-05-07 05:15 22.37149 114.16569 10369 ft 310 kts 116°
2026-05-07 05:16 22.36247 114.18744 10898 ft 325 kts 116°
2026-05-07 05:16 22.35309 114.21044 11310 ft 343 kts 116°
2026-05-07 05:16 22.34324 114.23476 11695 ft 362 kts 115°
2026-05-07 05:16 22.33080 114.25888 12034 ft 377 kts 130°
2026-05-07 05:17 22.31157 114.27877 12353 ft 390 kts 148°
2026-05-07 05:17 22.28732 114.29245 12879 ft 397 kts 158°
2026-05-07 05:17 22.26198 114.30486 13647 ft 402 kts 156°
2026-05-07 05:17 22.23713 114.31925 14296 ft 409 kts 152°
2026-05-07 05:18 22.21297 114.33603 14941 ft 415 kts 147°
2026-05-07 05:18 22.18941 114.35434 15606 ft 420 kts 146°
2026-05-07 05:18 22.16582 114.37305 16262 ft 424 kts 146°
2026-05-07 05:18 22.14196 114.39202 16920 ft 428 kts 146°
2026-05-07 05:19 22.11780 114.41116 17558 ft 432 kts 146°
2026-05-07 05:19 22.09341 114.43042 18185 ft 437 kts 146°
2026-05-07 05:19 22.06875 114.44987 18705 ft 442 kts 146°
2026-05-07 05:19 22.04382 114.46951 19220 ft 446 kts 146°
2026-05-07 05:20 22.01870 114.48929 19747 ft 450 kts 146°
2026-05-07 05:20 21.99342 114.50954 20256 ft 454 kts 143°
2026-05-07 05:20 21.96943 114.53200 20772 ft 459 kts 138°
2026-05-07 05:20 21.94730 114.55714 21288 ft 465 kts 132°
2026-05-07 05:21 21.92702 114.58451 21784 ft 469 kts 129°
2026-05-07 05:21 21.88751 114.64118 22776 ft 477 kts 128°
2026-05-07 05:21 21.86751 114.66992 23234 ft 480 kts 128°
2026-05-07 05:22 21.84735 114.69874 23664 ft 484 kts 128°
2026-05-07 05:22 21.82691 114.72783 24049 ft 487 kts 128°
2026-05-07 05:22 21.80635 114.75700 24451 ft 490 kts 128°
2026-05-07 05:22 21.78570 114.78626 24857 ft 493 kts 128°
2026-05-07 05:23 21.76566 114.81648 25220 ft 497 kts 122°
2026-05-07 05:23 21.75108 114.85033 25608 ft 501 kts 109°
2026-05-07 05:23 21.74337 114.88706 26022 ft 504 kts 96°
2026-05-07 05:23 21.74199 114.92480 26439 ft 505 kts 90°
2026-05-07 05:24 21.74228 114.96277 26842 ft 508 kts 89°
2026-05-07 05:24 21.74281 115.00090 27216 ft 512 kts 89°
2026-05-07 05:24 21.74323 115.03934 27601 ft 515 kts 89°
2026-05-07 05:24 21.74345 115.07809 27984 ft 519 kts 89°
2026-05-07 05:25 21.74351 115.11702 28453 ft 520 kts 89°
2026-05-07 05:25 21.74348 115.15588 29052 ft 518 kts 90°
2026-05-07 05:25 21.74341 115.19453 29657 ft 516 kts 90°
2026-05-07 05:25 21.74334 115.23329 30112 ft 518 kts 90°
2026-05-07 05:26 21.74324 115.27220 30447 ft 521 kts 90°
2026-05-07 05:26 21.74314 115.31129 30804 ft 523 kts 89°
2026-05-07 05:26 21.74304 115.35054 30952 ft 525 kts 89°
2026-05-07 05:27 21.74286 115.42919 30951 ft 525 kts 89°
2026-05-07 05:27 21.74264 115.50784 30952 ft 525 kts 89°
2026-05-07 05:28 21.74236 115.58642 30952 ft 525 kts 90°
2026-05-07 05:28 21.74204 115.66453 30951 ft 524 kts 90°
2026-05-07 05:29 21.74170 115.74298 30958 ft 528 kts 90°
2026-05-07 05:29 21.74133 115.82309 30956 ft 538 kts 90°
2026-05-07 05:30 21.74092 115.90370 30956 ft 538 kts 90°
2026-05-07 05:30 21.74047 115.98434 30957 ft 538 kts 90°
2026-05-07 05:31 21.73999 116.06495 30955 ft 538 kts 90°
2026-05-07 05:31 21.73956 116.13190 30955 ft 538 kts 90°
2026-05-07 05:32 21.73900 116.21310 30951 ft 538 kts 90°
2026-05-07 05:32 21.73840 116.29366 30952 ft 538 kts 90°
2026-05-07 05:33 21.73777 116.37420 30955 ft 538 kts 90°
2026-05-07 05:33 21.73711 116.45423 30952 ft 538 kts 90°
2026-05-07 05:34 21.73642 116.53476 30951 ft 538 kts 90°
2026-05-07 05:34 21.73567 116.61527 30953 ft 537 kts 90°
2026-05-07 05:35 21.73516 116.69569 30950 ft 537 kts 88°
2026-05-07 05:35 21.74182 116.77563 30955 ft 536 kts 79°
2026-05-07 05:36 21.75916 116.85361 30949 ft 536 kts 71°
2026-05-07 05:36 21.78510 116.92868 30949 ft 534 kts 66°
2026-05-07 05:37 21.81247 117.00300 30950 ft 533 kts 66°
2026-05-07 05:37 21.83962 117.07738 30954 ft 533 kts 67°
2026-05-07 05:38 21.86651 117.15172 30948 ft 533 kts 67°
2026-05-07 05:38 21.89333 117.22621 30947 ft 531 kts 67°
2026-05-07 05:39 21.91995 117.30021 30951 ft 531 kts 67°
2026-05-07 05:39 21.94668 117.37454 30955 ft 532 kts 67°
2026-05-07 05:40 21.97350 117.44891 30955 ft 533 kts 66°
2026-05-07 05:40 22.00468 117.52105 30952 ft 530 kts 60°
2026-05-07 05:41 22.04185 117.58954 30956 ft 528 kts 56°
2026-05-07 05:41 22.08039 117.65693 30949 ft 528 kts 56°
2026-05-07 05:42 22.11892 117.72450 30953 ft 528 kts 56°
2026-05-07 05:42 22.15729 117.79214 30954 ft 529 kts 56°
2026-05-07 05:43 22.19567 117.85995 30957 ft 530 kts 56°
2026-05-07 05:43 22.23382 117.92744 30955 ft 530 kts 56°
2026-05-07 05:44 22.27247 117.99591 30955 ft 530 kts 56°
2026-05-07 05:44 22.31136 118.06329 30956 ft 530 kts 55°
2026-05-07 05:45 22.35046 118.12997 30954 ft 528 kts 55°
2026-05-07 05:45 22.38977 118.19727 30953 ft 529 kts 55°
2026-05-07 05:46 22.42848 118.26468 30957 ft 530 kts 56°
2026-05-07 05:46 22.46696 118.33289 30955 ft 530 kts 56°
2026-05-07 05:47 22.50531 118.40081 30951 ft 529 kts 56°
2026-05-07 05:47 22.54372 118.46873 30952 ft 529 kts 56°
2026-05-07 05:48 22.58213 118.53667 30954 ft 528 kts 56°
2026-05-07 05:48 22.62074 118.60448 30953 ft 528 kts 56°
2026-05-07 05:49 22.65930 118.67219 30952 ft 528 kts 56°
2026-05-07 05:49 22.69774 118.73980 30950 ft 527 kts 56°
2026-05-07 05:50 22.73607 118.80730 30944 ft 527 kts 56°
2026-05-07 05:50 22.77449 118.87507 30949 ft 527 kts 56°
2026-05-07 05:51 22.81293 118.94295 30956 ft 528 kts 56°
2026-05-07 05:51 22.85133 119.01085 30951 ft 527 kts 56°
2026-05-07 05:52 22.88962 119.07865 30951 ft 527 kts 56°
2026-05-07 05:52 22.92792 119.14655 30948 ft 527 kts 56°
2026-05-07 05:53 22.96795 119.21760 30948 ft 527 kts 56°
2026-05-07 05:53 23.00618 119.28555 30951 ft 526 kts 56°
2026-05-07 05:54 23.04440 119.35356 30942 ft 528 kts 56°
2026-05-07 05:54 23.08268 119.42177 30943 ft 528 kts 56°
2026-05-07 05:55 23.12088 119.48993 30944 ft 528 kts 56°
2026-05-07 05:55 23.16315 119.55494 30939 ft 524 kts 47°
2026-05-07 05:56 23.21500 119.60986 30943 ft 518 kts 36°
2026-05-07 05:56 23.27434 119.65328 30844 ft 507 kts 27°
2026-05-07 05:56 23.30465 119.67228 30494 ft 497 kts 26°
2026-05-07 05:57 23.33447 119.69066 30164 ft 489 kts 26°
2026-05-07 05:57 23.36383 119.70880 29796 ft 481 kts 27°
2026-05-07 05:57 23.39258 119.72671 29535 ft 471 kts 27°
2026-05-07 05:57 23.42070 119.74435 29261 ft 461 kts 27°
2026-05-07 05:58 23.44817 119.76165 28987 ft 452 kts 27°
2026-05-07 05:58 23.47524 119.77877 28742 ft 448 kts 27°
2026-05-07 05:58 23.50175 119.79659 28493 ft 448 kts 29°
2026-05-07 05:58 23.52817 119.81473 28238 ft 448 kts 29°
2026-05-07 05:59 23.55409 119.83262 27990 ft 446 kts 29°
2026-05-07 05:59 23.58062 119.85094 27749 ft 444 kts 29°
2026-05-07 05:59 23.60664 119.86890 27477 ft 443 kts 29°
2026-05-07 05:59 23.63227 119.88657 27132 ft 440 kts 29°
2026-05-07 06:00 23.65811 119.90440 26743 ft 438 kts 29°
2026-05-07 06:00 23.68378 119.92211 26346 ft 435 kts 29°
2026-05-07 06:00 23.70923 119.93967 25945 ft 432 kts 29°
2026-05-07 06:00 23.73459 119.95718 25528 ft 430 kts 29°
2026-05-07 06:01 23.75982 119.97459 25121 ft 428 kts 29°
2026-05-07 06:01 23.78482 119.99186 24779 ft 424 kts 29°
2026-05-07 06:01 23.80966 120.00903 24407 ft 421 kts 29°
2026-05-07 06:01 23.83421 120.02600 24120 ft 415 kts 30°
2026-05-07 06:02 23.85850 120.04281 23833 ft 409 kts 30°
2026-05-07 06:02 23.88235 120.05932 23523 ft 404 kts 30°
2026-05-07 06:02 23.90593 120.07564 23180 ft 399 kts 30°
2026-05-07 06:02 23.92924 120.09179 22838 ft 394 kts 30°
2026-05-07 06:03 23.95225 120.10772 22511 ft 389 kts 30°
2026-05-07 06:03 23.97495 120.12345 22181 ft 384 kts 30°
2026-05-07 06:03 23.99733 120.13897 21864 ft 379 kts 30°
2026-05-07 06:03 24.01950 120.15434 21541 ft 374 kts 30°
2026-05-07 06:04 24.03396 120.16437 21296 ft 371 kts 30°
2026-05-07 06:04 24.05572 120.17946 20926 ft 369 kts 30°
2026-05-07 06:04 24.07736 120.19449 20534 ft 367 kts 30°
2026-05-07 06:04 24.09886 120.20942 20151 ft 367 kts 30°
2026-05-07 06:05 24.12111 120.22485 19698 ft 391 kts 30°
2026-05-07 06:05 24.14440 120.24104 19234 ft 398 kts 30°
2026-05-07 06:05 24.16776 120.25732 18808 ft 397 kts 31°
2026-05-07 06:05 24.19135 120.27378 18373 ft 396 kts 31°
2026-05-07 06:06 24.21419 120.28972 17909 ft 394 kts 31°
2026-05-07 06:06 24.23728 120.30584 17462 ft 391 kts 30°
2026-05-07 06:06 24.26007 120.32176 17049 ft 388 kts 30°
2026-05-07 06:06 24.28270 120.33755 16636 ft 384 kts 30°
2026-05-07 06:07 24.30511 120.35320 16235 ft 381 kts 30°
2026-05-07 06:07 24.32717 120.36860 15841 ft 378 kts 30°
2026-05-07 06:07 24.34924 120.38402 15452 ft 374 kts 30°
2026-05-07 06:07 24.37112 120.39930 15068 ft 371 kts 30°
2026-05-07 06:08 24.39267 120.41436 14686 ft 368 kts 30°
2026-05-07 06:08 24.41412 120.42935 14314 ft 365 kts 30°
2026-05-07 06:08 24.43542 120.44425 13952 ft 362 kts 30°
2026-05-07 06:08 24.45666 120.45912 13538 ft 360 kts 30°
2026-05-07 06:09 24.47770 120.47382 13111 ft 357 kts 30°
2026-05-07 06:09 24.49856 120.48840 12678 ft 355 kts 30°
2026-05-07 06:09 24.51932 120.50293 12239 ft 353 kts 30°
2026-05-07 06:09 24.53996 120.51738 11822 ft 350 kts 30°
2026-05-07 06:10 24.56028 120.53161 11459 ft 347 kts 30°
2026-05-07 06:10 24.58028 120.54574 11280 ft 337 kts 33°
2026-05-07 06:10 24.59706 120.56321 11100 ft 330 kts 50°
2026-05-07 06:10 24.61027 120.58342 10932 ft 321 kts 54°
2026-05-07 06:11 24.62267 120.60363 10721 ft 314 kts 54°
2026-05-07 06:11 24.63498 120.62330 10389 ft 311 kts 54°
2026-05-07 06:11 24.64749 120.64269 10065 ft 310 kts 53°
2026-05-07 06:11 24.66012 120.66186 9733 ft 308 kts 53°
2026-05-07 06:12 24.67283 120.68089 9324 ft 307 kts 53°
2026-05-07 06:12 24.68549 120.69984 8962 ft 306 kts 54°
2026-05-07 06:12 24.69763 120.71894 8629 ft 304 kts 55°
2026-05-07 06:12 24.70975 120.73786 8275 ft 303 kts 54°
2026-05-07 06:13 24.72207 120.75665 7936 ft 302 kts 54°
2026-05-07 06:13 24.73451 120.77523 7622 ft 300 kts 54°
2026-05-07 06:13 24.74691 120.79356 7285 ft 298 kts 54°
2026-05-07 06:13 24.75935 120.81180 6974 ft 297 kts 54°
2026-05-07 06:14 24.77175 120.82992 6654 ft 296 kts 54°
2026-05-07 06:14 24.78401 120.84785 6333 ft 295 kts 54°
2026-05-07 06:14 24.79629 120.86579 6007 ft 293 kts 54°
2026-05-07 06:14 24.80852 120.88373 5694 ft 291 kts 54°
2026-05-07 06:15 24.82066 120.90150 5364 ft 290 kts 54°
2026-05-07 06:15 24.83278 120.91923 5070 ft 288 kts 54°
2026-05-07 06:15 24.84482 120.93686 4750 ft 286 kts 53°
2026-05-07 06:15 24.85675 120.95428 4424 ft 284 kts 53°
2026-05-07 06:16 24.86861 120.97160 4108 ft 282 kts 53°
2026-05-07 06:16 24.88029 120.98864 4003 ft 273 kts 53°
2026-05-07 06:16 24.89143 121.00496 3983 ft 259 kts 53°
2026-05-07 06:16 24.90196 121.02036 3978 ft 245 kts 53°
2026-05-07 06:17 24.91210 121.03480 3981 ft 230 kts 50°
2026-05-07 06:17 24.92226 121.04757 4016 ft 213 kts 47°
2026-05-07 06:17 24.93213 121.05950 3820 ft 209 kts 47°
2026-05-07 06:17 24.94178 121.07134 3561 ft 208 kts 48°
2026-05-07 06:18 24.95137 121.08337 3289 ft 208 kts 49°
2026-05-07 06:18 24.96081 121.09542 3017 ft 207 kts 48°
2026-05-07 06:18 24.97022 121.10748 2749 ft 207 kts 49°
2026-05-07 06:18 24.97956 121.11947 2481 ft 205 kts 49°
2026-05-07 06:19 24.98876 121.13129 2220 ft 200 kts 48°
2026-05-07 06:19 24.99762 121.14268 1945 ft 191 kts 47°
2026-05-07 06:19 25.00606 121.15349 1705 ft 181 kts 47°
2026-05-07 06:19 25.01402 121.16368 1466 ft 170 kts 46°
2026-05-07 06:20 25.02143 121.17317 1248 ft 159 kts 46°
2026-05-07 06:20 25.02857 121.18228 1047 ft 156 kts 46°
2026-05-07 06:20 25.03568 121.19134 887 ft 156 kts 46°
2026-05-07 06:20 25.04275 121.20041 679 ft 155 kts 47°
2026-05-07 06:21 25.04961 121.20932 461 ft 152 kts 46°
2026-05-07 06:21 25.05646 121.21804 260 ft 149 kts 45°
2026-05-07 06:21 25.06319 121.22658 107 ft 145 kts 45°
2026-05-07 06:21 25.06904 121.23393 106 ft 103 kts 49°
2026-05-07 06:22 25.07257 121.23842 101 ft 57 kts 49°
2026-05-07 06:22 25.07681 121.24224 107 ft 22 kts 20°
2026-05-07 06:22 25.07821 121.24275 107 ft 19 kts
2026-05-07 06:23 25.07924 121.24230 112 ft 13 kts 321°
2026-05-07 06:23 25.07958 121.24199 111 ft 6 kts 320°
2026-05-07 06:23 25.07968 121.24189 110 ft 7 kts 320°
2026-05-07 06:23 25.07976 121.24181 110 ft 6 kts 312°
2026-05-07 06:24 25.07978 121.24135 110 ft 8 kts 246°
2026-05-07 06:24 25.07948 121.24072 111 ft 10 kts 256°
2026-05-07 06:24 25.07957 121.24040 111 ft 5 kts 311°
2026-05-07 06:24 25.07987 121.24011 111 ft 7 kts 319°
2026-05-07 06:25 25.08004 121.23994 111 ft 2 kts 319°
2026-05-07 06:25 25.08014 121.23985 110 ft 1 kts 319°
2026-05-07 06:25 25.08022 121.23977 111 ft 1 kts 319°
2026-05-07 06:25 25.08027 121.23973 110 ft 0 kts 319°